User: anonymous   Login
Location: Baix
(44.7118°N, 4.7648°E)
Time: 16:24:25
(UTC+00:00)
Language:

NOSS 3 (A) - Orbit

View from above orbital plane
View from above orbital plane
View from above satellite
View from above satellite

Ground track
Ground track

The orbit data is extracted from the following two-line orbital elements,

1 11720U 80019A   19064.78057663 0.00001100  00000-0  41953-4 0    02
2 11720  63.3401 332.1122 0879741  35.1145 324.8855 13.76596422    09
Epoch (UTC): 05 March 2019 18:44:01
Eccentricity: 0.0879741
inclination: 63.3401°
perigee height: 329 km
apogee height: 1623 km
right ascension of ascending node: 332.1122°
argument of perigee: 35.1145°
revolutions per day: 13.76596422
mean anomaly at epoch: 324.8855°
orbit number at epoch: 0

The dashed part of the orbit path shows where the satellite is in the earth's shadow,  

DLR